Location: Monroe
(41.9160°N, 83.3980°W)
Time: 03:08:38
(UTC-04:00)

ISS - All Passes

Search period start: 27 April 2015 00:00
Search period end: 07 May 2015 00:00
Orbit: 395 x 402 km, 51.6° (Epoch: 27 April)

Date Brightness Start Highest point End Pass type
(mag) Time Alt. Az. Time Alt. Az. Time Alt. Az.
27 Apr - 11:36:09 10° S 11:38:48 24° SE 11:41:31 10° E daylight
27 Apr - 13:11:54 10° WSW 13:15:02 42° NNW 13:18:10 10° NE daylight
27 Apr - 14:49:51 10° NW 14:52:01 16° N 14:54:10 10° NNE daylight
27 Apr - 16:27:01 10° NNW 16:29:17 17° NNE 16:31:35 10° NE daylight
27 Apr - 18:02:58 10° NW 18:06:12 53° NNE 18:09:23 10° ESE daylight
27 Apr - 19:39:57 10° W 19:42:18 18° SW 19:44:36 10° S daylight
28 Apr - 10:43:29 10° SSE 10:44:49 12° SE 10:46:16 10° ESE daylight
28 Apr - 12:17:33 10° WSW 12:20:48 77° NW 12:24:04 10° NE daylight
28 Apr - 13:55:05 10° WNW 13:57:34 20° NNW 14:00:02 10° NE daylight
28 Apr - 15:32:48 10° NNW 15:34:49 15° N 15:36:51 10° NE daylight
28 Apr - 17:08:55 10° NW 17:11:54 32° NNE 17:14:53 10° E daylight
28 Apr - 18:45:15 10° WNW 18:48:16 35° SW 18:51:16 10° SSE daylight
29 Apr - 11:23:27 10° SW 11:26:37 53° SE 11:29:48 10° ENE daylight
29 Apr - 13:00:19 10° W 13:03:08 26° NNW 13:05:57 10° NE daylight
29 Apr - 14:38:19 10° NW 14:40:17 15° N 14:42:15 10° NE daylight
29 Apr - 16:14:50 10° NW 16:17:30 23° NNE 16:20:10 10° ENE daylight
29 Apr - 17:50:52 10° WNW 17:54:07 73° SW 17:57:22 10° SE daylight
30 Apr - 10:29:43 10° SSW 10:32:29 26° SE 10:35:16 10° ENE daylight
30 Apr - 12:05:38 10° W 12:08:43 39° NNW 12:11:49 10° NE daylight
30 Apr - 13:43:36 10° NW 13:45:43 16° N 13:47:50 10° NNE daylight
30 Apr - 15:20:41 10° NNW 15:22:59 18° NNE 15:25:19 10° ENE daylight
30 Apr - 16:56:37 10° NW 16:59:51 58° NNE 17:03:04 10° ESE daylight
30 Apr - 18:33:44 10° W 18:35:55 17° SW 18:38:02 10° S daylight
01 May - 09:36:43 10° SSE 09:38:21 13° SE 09:40:05 10° E daylight
01 May - 11:11:07 10° WSW 11:14:21 71° NW 11:17:36 10° NE daylight
01 May - 12:48:43 10° WNW 12:51:09 19° NNW 12:53:34 10° NNE daylight
01 May - 14:26:21 10° NNW 14:28:24 15° N 14:30:27 10° NE daylight
01 May - 16:02:25 10° NW 16:05:26 34° NNE 16:08:28 10° E daylight
01 May - 17:38:49 10° WNW 17:41:46 32° SW 17:44:42 10° SSE daylight
02 May - 10:16:51 10° SW 10:20:02 58° SE 10:23:14 10° ENE daylight
02 May - 11:53:49 10° WNW 11:56:35 25° NNW 11:59:20 10° NE daylight
02 May - 13:31:47 10° NW 13:33:44 15° N 13:35:41 10° NE daylight
02 May - 15:08:13 10° NW 15:10:55 23° NNE 15:13:38 10° ENE daylight
02 May - 16:44:16 10° WNW 16:47:31 66° SW 16:50:44 10° SE daylight
03 May - 09:22:56 10° SSW 09:25:45 28° SE 09:28:37 10° ENE daylight
03 May - 10:58:59 10° W 11:02:02 37° NNW 11:05:06 10° NE daylight
03 May - 12:36:58 10° NW 12:39:03 16° N 12:41:07 10° NNE daylight
03 May - 14:13:57 10° NNW 14:16:18 18° NNE 14:18:40 10° ENE daylight
03 May - 15:49:53 10° NW 15:53:07 63° NNE 15:56:21 10° ESE daylight
03 May - 17:27:08 10° W 17:29:09 15° SW 17:31:05 10° S daylight
04 May - 08:29:41 10° SSE 08:31:31 15° SE 08:33:27 10° E daylight
04 May - 10:04:19 10° WSW 10:07:32 65° NNW 10:10:46 10° NE daylight
04 May - 11:41:58 10° WNW 11:44:20 18° NNW 11:46:42 10° NNE daylight
04 May - 13:19:32 10° NNW 13:21:35 16° N 13:23:39 10° NE daylight
04 May - 14:55:34 10° NW 14:58:36 36° NNE 15:01:40 10° E daylight
04 May - 16:32:00 10° WNW 16:34:53 29° SW 16:37:45 10° SSE daylight
05 May - 09:09:53 10° SW 09:13:05 64° SE 09:16:18 10° ENE daylight
05 May - 10:46:56 10° WNW 10:49:38 24° NNW 10:52:21 10° NE daylight
05 May - 12:24:52 10° NW 12:26:49 15° N 12:28:45 10° NE daylight
05 May - 14:01:14 10° NW 14:03:58 24° NNE 14:06:43 10° ENE daylight
05 May - 15:37:18 10° WNW 15:40:32 61° SW 15:43:43 10° SE daylight
06 May - 08:15:47 10° SSW 08:18:40 31° SE 08:21:35 10° ENE daylight
06 May - 09:51:57 10° W 09:54:57 35° NNW 09:58:00 10° NE daylight
06 May - 11:29:57 10° NW 11:32:00 15° N 11:34:02 10° NNE daylight
06 May - 13:06:51 10° NNW 13:09:13 19° NNE 13:11:38 10° ENE daylight
06 May - 14:42:47 10° NW 14:46:01 68° NNE 14:49:15 10° ESE daylight
06 May - 16:20:11 10° W 16:22:01 14° SW 16:23:46 10° SSW daylight
